FW1093 Weather Reports


time (UTC)temp
C
wind
direction
speed
KPH
gust
KPH
rain 1hr
cm
rain 24hr
cm
rain mn
cm
humidity
%
barometer
mb
20260503211320 13 293 1.6 9.7 0.00 0.00 0.00 35 1009.6
20260503210313 13 345 1.6 11.3 0.00 0.00 0.00 35 1009.6
20260503205331 13 267 4.8 9.7 0.00 0.00 0.00 35 1009.8
20260503204325 13 282 1.6 9.7 0.00 0.00 0.00 35 1009.8
20260503203320 12 338 4.8 11.3 0.00 0.00 0.00 35 1009.8
20260503202343 12 325 4.8 11.3 0.00 0.00 0.00 35 1009.8
20260503201315 12 359 3.2 12.9 0.00 0.00 0.00 39 1009.7
20260503200351 12 232 4.8 9.7 0.00 0.00 0.00 36 1009.8
20260503195320 13 10 1.6 9.7 0.00 0.00 0.00 38 1009.8
20260503194321 12 310 3.2 16.1 0.00 0.00 0.00 39 1009.8
20260503193341 11 319 3.2 12.9 0.00 0.00 0.00 37 1009.9
20260503192314 11 360 3.2 9.7 0.00 0.00 0.00 40 1010.0
20260503191333 11 339 3.2 9.7 0.00 0.00 0.00 39 1009.9
20260503190329 12 274 3.2 9.7 0.00 0.00 0.00 38 1009.8
20260503185319 12 338 6.4 12.9 0.00 0.00 0.00 37 1010.2
20260503184339 12 18 4.8 12.9 0.00 0.00 0.00 37 1010.0
20260503183327 12 189 4.8 9.7 0.00 0.00 0.00 38 1009.9
20260503182322 12 241 4.8 12.9 0.00 0.00 0.00 38 1009.9
20260503181314 11 199 3.2 22.5 0.00 0.00 0.00 37 1009.8
20260503180334 12 94 3.2 9.7 0.00 0.00 0.00 40 1009.9
20260503175326 11 360 3.2 12.9 0.00 0.00 0.00 38 1009.9
20260503174317 11 41 1.6 9.7 0.00 0.00 0.00 41 1009.9
20260503173337 11 251 3.2 9.7 0.00 0.00 0.00 38 1010.0
20260503172330 11 10 3.2 8.0 0.00 0.00 0.00 42 1010.0
20260503171346 10 274 3.2 11.3 0.00 0.00 0.00 46 1010.0
20260503170317 10 8 1.6 12.9 0.00 0.00 0.00 46 1010.0
20260503150328 8 238 3.2 19.3 0.00 0.00 0.00 55 1010.4
20260503131323 7 333 3.2 16.1 0.00 0.00 0.00 62 1010.3
20260503130346 6 293 4.8 17.7 0.00 0.00 0.00 62 1010.4
20260503110315 3 283 0.0 3.2 0.00 0.05 0.00 73 1010.1
20260503090323 4 321 0.0 9.7 0.00 0.08 0.00 68 1009.8
20260503081328 4 347 0.0 4.8 0.00 0.13 0.00 66 1010.1
20260503080339 5 335 0.0 4.8 0.00 0.13 0.00 67 1010.1
20260503072345 5 217 0.0 1.6 0.00 0.13 0.00 64 1010.3
20260503071317 5 282 0.0 3.2 0.00 0.13 0.00 64 1010.3
20260503070338 6 326 0.0 8.0 0.00 0.13 0.00 63 1010.4
20260503060329 6 285 0.0 8.0 0.00 0.13 0.00 60 1010.6
20260503054316 6 253 0.0 4.8 0.00 0.13 0.00 58 1011.0
20260503053334 6 274 1.6 8.0 0.00 0.13 0.00 59 1011.1
20260503052328 6 282 0.0 4.8 0.00 0.13 0.00 63 1011.0
20260503051322 6 249 0.0 1.6 0.00 0.13 0.00 60 1011.3
20260503050331 6 299 0.0 3.2 0.00 0.13 0.00 64 1011.3
20260503045323 6 248 0.0 1.6 0.00 0.13 0.00 63 1011.3
20260503044343 6 314 0.0 4.8 0.00 0.13 0.00 60 1011.5
20260503043314 7 229 0.0 1.6 0.00 0.13 0.00 62 1011.4
20260503042334 7 263 0.0 1.6 0.00 0.13 0.00 63 1011.4
20260503041329 7 182 0.0 1.6 0.00 0.13 0.00 64 1011.4
20260503040323 7 293 0.0 4.8 0.00 0.13 0.00 62 1011.5
20260503035336 7 267 0.0 3.2 0.00 0.13 0.13 64 1011.4
20260503034328 6 274 0.0 3.2 0.00 0.13 0.13 68 1011.3
20260503033323 6 260 0.0 0.0 0.00 0.13 0.13 69 1011.3
20260503032314 6 254 0.0 0.0 0.00 0.13 0.13 70 1011.4
20260503031326 6 254 0.0 0.0 0.00 0.13 0.13 74 1011.4
20260503030322 6 254 0.0 0.0 0.00 0.13 0.13 72 1011.3
20260503025314 6 254 0.0 0.0 0.00 0.13 0.13 71 1011.4
20260503024336 6 254 0.0 0.0 0.00 0.13 0.13 70 1011.5
20260503023330 7 254 0.0 0.0 0.00 0.13 0.13 70 1011.7
20260503022323 7 254 0.0 0.0 0.00 0.13 0.13 69 1011.6
20260503021318 7 254 0.0 0.0 0.00 0.13 0.13 65 1011.7
20260503020314 7 254 0.0 0.0 0.00 0.13 0.13 64 1011.7
20260503015350 7 254 0.0 0.0 0.00 0.13 0.13 62 1011.7
20260503014350 7 254 0.0 0.0 0.00 0.13 0.13 62 1011.6
20260503013323 7 254 0.0 0.0 0.00 0.13 0.13 65 1011.6
20260503012318 7 254 0.0 0.0 0.00 0.13 0.13 66 1011.4
20260503011335 7 255 0.0 0.0 0.00 0.13 0.13 67 1011.5
20260503010338 7 255 0.0 0.0 0.00 0.13 0.13 66 1011.5
20260503005316 8 244 0.0 0.0 0.00 0.13 0.13 65 1011.4
20260503004337 8 245 0.0 3.2 0.00 0.13 0.13 66 1011.3
20260503003334 8 234 0.0 0.0 0.00 0.13 0.13 71 1011.1
20260503002328 8 288 0.0 0.0 0.00 0.13 0.13 69 1010.9
20260503001321 8 288 0.0 0.0 0.00 0.13 0.13 69 1010.8
20260503000315 9 288 0.0 0.0 0.00 0.13 0.13 69 1010.8
20260502235335 10 288 0.0 0.0 0.00 0.13 0.13 67 1010.6
20260502234334 10 288 0.0 0.0 0.00 0.13 0.13 63 1010.6
20260502233333 11 288 0.0 0.0 0.00 0.13 0.13 61 1010.5
20260502232352 11 288 0.0 0.0 0.00 0.13 0.13 58 1010.5
20260502231353 12 288 0.0 4.8 0.00 0.13 0.13 50 1010.4
20260502230324 12 305 0.0 8.0 0.00 0.13 0.13 49 1010.3
20260502224349 13 274 1.6 6.4 0.00 0.13 0.13 49 1010.3
20260502223326 13 265 1.6 9.7 0.00 0.13 0.13 50 1010.2
20260502222320 14 280 1.6 6.4 0.00 0.13 0.13 52 1010.2
20260502221338 13 353 1.6 4.8 0.00 0.13 0.13 50 1010.1
20260502220336 13 280 0.0 4.8 0.00 0.13 0.13 52 1010.0
20260502215335 14 69 1.6 8.0 0.00 0.13 0.13 48 1009.9
20260502214331 15 345 1.6 8.0 0.00 0.13 0.13 44 1009.8
20260502213349 16 186 0.0 4.8 0.00 0.13 0.13 44 1009.8
20260502212348 15 302 1.6 4.8 0.00 0.13 0.13 45 1009.8